Weather History for Fort Morgan, CO

Change the Weather History Date:

Tuesday, January 21, 2014

  Actual Average (KAKO) Record (KAKO)
Temperature  
Mean Temperature 37 °F 29 °F  
Max Temperature 62 °F 40 °F 67 °F (1950)
Min Temperature 12 °F 17 °F -14 °F (1966)
Degree Days  
Heating Degree Days 28    
Month to date heating degree days  
Cooling Degree Days 0    
Month to date cooling degree days  
Moisture  
Dew Point 10 °F    
Average Humidity 47    
Maximum Humidity 93    
Minimum Humidity 7    
Precipitation  
Precipitation 0.00 in 0.01 in 0.12 in (1988)
Month to date precipitation 0.18  
Year to date precipitation 0.18  
Sea Level Pressure  
Sea Level Pressure 30.15 in    
Wind  
Wind Speed 9 mph (WNW)    
Max Wind Speed 30 mph    
Max Gust Speed 37 mph    
Visibility 10 miles    
Events      
T = Trace of Precipitation, MM = Missing Value Source: NWS Daily Summary

Daily Weather History Graph

Daily Weather History Graph

Search for Another Location

Airport:

Trip Planner

Search our weather history database for the weather conditions in past years. The results will help you decide how hot, cold, wet, or windy it might be!

Date:

Astronomy

Jan. 21, 2014 Rise Set
Actual Time 7:13 AM MST 5:00 PM MST
Civil Twilight 6:43 AM MST 5:30 PM MST
Nautical Twilight 6:10 AM MST 6:03 PM MST
Astronomical Twilight 5:37 AM MST 6:35 PM MST
Moon 10:36 PM MST (1/21) 9:43 AM MST (1/21)
Length of Visible Light 10h 46m
Length of Day
9h 47m
Waning Gibbous, 74% of the Moon is Illuminated
Jan 21
Waning Gibbous
Jan 23
Last Quarter
Jan 30
New
Feb 6
First Quarter
Feb 14
Full

Hourly Weather History & Observations

Time (MST) Temp. Windchill Dew Point Humidity Pressure Visibility Wind Dir Wind Speed Gust Speed Precip Events Conditions
12:15 AM 24.8 °F 20.5 °F 16.3 °F 70% 30.34 in 10.0 mi West 3.5 mph - N/A   Clear
12:35 AM 24.1 °F 18.2 °F 16.0 °F 71% 30.33 in 10.0 mi West 4.6 mph - N/A   Clear
12:55 AM 21.0 °F 12.4 °F 14.9 °F 77% 30.32 in 10.0 mi West 6.9 mph - N/A   Clear
1:15 AM 20.7 °F 11.9 °F 15.3 °F 80% 30.32 in 10.0 mi West 6.9 mph - N/A   Clear
1:35 AM 20.7 °F 14.2 °F 15.3 °F 80% 30.31 in 10.0 mi West 4.6 mph - N/A   Clear
1:55 AM 21.2 °F 14.9 °F 15.6 °F 79% 30.30 in 10.0 mi West 4.6 mph - N/A   Clear
2:15 AM 23.5 °F 17.6 °F 16.7 °F 75% 30.29 in 10.0 mi West 4.6 mph - N/A   Clear
2:35 AM 21.0 °F 13.4 °F 15.1 °F 78% 30.28 in 10.0 mi West 5.8 mph - N/A   Clear
2:55 AM 20.1 °F 13.6 °F 15.6 °F 83% 30.27 in 10.0 mi West 4.6 mph - N/A   Clear
3:15 AM 20.5 °F 15.6 °F 15.6 °F 81% 30.26 in 10.0 mi WNW 3.5 mph - N/A   Clear
3:35 AM 21.6 °F 14.0 °F 16.0 °F 79% 30.25 in 10.0 mi West 5.8 mph - N/A   Clear
3:55 AM 19.9 °F 10.1 °F 14.7 °F 80% 30.24 in 10.0 mi West 8.1 mph - N/A   Clear
4:15 AM 19.4 °F 12.8 °F 14.7 °F 82% 30.23 in 10.0 mi West 4.6 mph - N/A   Clear
4:35 AM 20.3 °F 11.5 °F 14.5 °F 78% 30.22 in 10.0 mi WSW 6.9 mph - N/A   Clear
4:55 AM 17.6 °F 6.4 °F 14.0 °F 86% 30.21 in 10.0 mi WSW 9.2 mph - N/A   Clear
5:15 AM 16.3 °F 4.1 °F 13.1 °F 87% 30.19 in 10.0 mi West 10.4 mph - N/A   Clear
5:35 AM 15.8 °F 2.7 °F 12.9 °F 88% 30.18 in 10.0 mi WSW 11.5 mph - N/A   Clear
5:55 AM 15.6 °F 3.2 °F 13.3 °F 90% 30.18 in 10.0 mi WSW 10.4 mph - N/A   Clear
6:15 AM 14.0 °F 2.0 °F 11.8 °F 91% 30.18 in 10.0 mi West 9.2 mph - N/A   Clear
6:35 AM 13.5 °F 2.2 °F 11.5 °F 92% 30.17 in 10.0 mi West 8.1 mph - N/A   Clear
6:55 AM 12.9 °F 1.6 °F 10.9 °F 92% 30.17 in 10.0 mi West 8.1 mph - N/A   Clear
7:15 AM 14.2 °F 3.1 °F 12.4 °F 93% 30.16 in 10.0 mi West 8.1 mph - N/A   Clear
7:35 AM 16.2 °F 3.9 °F 13.8 °F 90% 30.17 in 10.0 mi West 10.4 mph - N/A   Clear
7:55 AM 15.6 °F 4.9 °F 12.9 °F 89% 30.16 in 10.0 mi West 8.1 mph - N/A   Clear
8:15 AM 19.2 °F 10.2 °F 16.3 °F 89% 30.16 in 10.0 mi West 6.9 mph - N/A   Clear
8:35 AM 24.6 °F 16.7 °F 20.5 °F 84% 30.16 in 10.0 mi West 6.9 mph - N/A   Clear
8:55 AM 27.5 °F 20.2 °F 22.1 °F 80% 30.15 in 10.0 mi West 6.9 mph - N/A   Clear
9:15 AM 29.7 °F 22.8 °F 22.8 °F 76% 30.16 in 10.0 mi WSW 6.9 mph - N/A   Clear
9:35 AM 31.8 °F 23.9 °F 22.3 °F 68% 30.16 in 10.0 mi West 9.2 mph - N/A   Clear
9:55 AM 36.0 °F 29.6 °F 20.8 °F 54% 30.15 in 10.0 mi West 8.1 mph - N/A   Clear
10:15 AM 40.1 °F 34.7 °F 18.9 °F 43% 30.16 in 10.0 mi West 8.1 mph - N/A   Clear
10:35 AM 44.2 °F 39.2 °F 13.8 °F 29% 30.16 in 10.0 mi West 9.2 mph - N/A   Clear
10:55 AM 49.3 °F - 10.0 °F 21% 30.16 in 10.0 mi NNE 5.8 mph - N/A   Clear
11:15 AM 53.2 °F - 3.9 °F 14% 30.15 in 10.0 mi West 5.8 mph - N/A   Clear
11:35 AM 54.5 °F - 5.9 °F 14% 30.13 in 10.0 mi West 5.8 mph - N/A   Clear
11:55 AM 57.9 °F - 5.2 °F 12% 30.12 in 10.0 mi WNW 6.9 mph - N/A   Clear
12:15 PM 57.6 °F - 6.6 °F 13% 30.11 in 10.0 mi WSW 6.9 mph - N/A   Clear
12:35 PM 59.0 °F - 6.4 °F 12% 30.09 in 10.0 mi WSW 5.8 mph - N/A   Clear
12:55 PM 59.2 °F - 5.0 °F 11% 30.08 in 10.0 mi WSW 11.5 mph 18.4 mph N/A   Clear
1:15 PM 62.4 °F - -4.0 °F 7% 30.07 in 10.0 mi NW 19.6 mph 27.6 mph N/A   Clear
1:35 PM 62.1 °F - -3.1 °F 7% 30.07 in 10.0 mi NNW 29.9 mph 35.7 mph N/A   Clear
1:55 PM 61.5 °F - -2.6 °F 7% 30.06 in 10.0 mi NNW 25.3 mph 34.5 mph N/A   Clear
2:15 PM 61.0 °F - -1.8 °F 8% 30.07 in 10.0 mi North 26.5 mph 33.4 mph N/A   Clear
2:35 PM 59.7 °F - -1.5 °F 8% 30.07 in 10.0 mi North 28.8 mph 35.7 mph N/A   Clear
2:55 PM 59.2 °F - -0.4 °F 9% 30.06 in 10.0 mi North 25.3 mph 36.8 mph N/A   Clear
3:15 PM 58.1 °F - 1.0 °F 10% 30.07 in 10.0 mi North 19.6 mph 36.8 mph N/A   Clear
3:35 PM 56.8 °F - 2.1 °F 11% 30.07 in 10.0 mi North 23.0 mph 31.1 mph N/A   Clear
3:55 PM 55.8 °F - 2.5 °F 12% 30.08 in 10.0 mi North 18.4 mph 31.1 mph N/A   Clear
4:15 PM 53.6 °F - 2.7 °F 13% 30.08 in 10.0 mi North 19.6 mph 27.6 mph N/A   Clear
4:35 PM 51.3 °F - 3.0 °F 14% 30.08 in 10.0 mi North 16.1 mph 24.2 mph N/A   Clear
4:55 PM 48.7 °F - 3.2 °F 16% 30.09 in 10.0 mi North 16.1 mph 24.2 mph N/A   Clear
5:15 PM 46.8 °F - 4.1 °F 17% 30.10 in 10.0 mi North 15.0 mph - N/A   Clear
5:35 PM 45.0 °F 37.6 °F 5.0 °F 19% 30.11 in 10.0 mi North 17.3 mph - N/A   Clear
5:55 PM 43.0 °F 35.1 °F 5.7 °F 22% 30.10 in 10.0 mi North 17.3 mph 25.3 mph N/A   Clear
6:15 PM 41.9 °F 33.7 °F 5.9 °F 23% 30.10 in 10.0 mi North 17.3 mph 21.9 mph N/A   Clear
6:35 PM 41.2 °F 32.7 °F 6.6 °F 24% 30.10 in 10.0 mi North 17.3 mph - N/A   Clear
6:55 PM 39.0 °F 29.0 °F 6.8 °F 26% 30.10 in 10.0 mi North 20.7 mph - N/A   Clear
7:15 PM 38.3 °F 28.4 °F 6.8 °F 27% 30.10 in 10.0 mi North 19.6 mph - N/A   Clear
7:35 PM 39.0 °F 29.3 °F 7.2 °F 27% 30.10 in 10.0 mi North 19.6 mph - N/A   Clear
7:55 PM 37.6 °F 27.7 °F 7.7 °F 29% 30.09 in 10.0 mi North 18.4 mph - N/A   Clear
8:15 PM 36.7 °F 25.7 °F 8.4 °F 31% 30.09 in 10.0 mi North 21.9 mph - N/A   Clear
8:35 PM 36.7 °F 26.6 °F 9.7 °F 33% 30.09 in 10.0 mi North 18.4 mph - N/A   Clear
8:55 PM 37.0 °F 28.1 °F 10.9 °F 34% 30.10 in 10.0 mi North 15.0 mph 21.9 mph N/A   Clear
9:15 PM 35.6 °F 26.6 °F 10.9 °F 36% 30.11 in 10.0 mi NNE 13.8 mph - N/A   Clear
9:35 PM 34.7 °F - 11.3 °F 38% 30.13 in 10.0 mi Calm Calm - N/A   Clear
9:55 PM 32.2 °F - 11.1 °F 42% 30.13 in 10.0 mi Calm Calm - N/A   Clear
10:15 PM 36.1 °F 33.5 °F 12.0 °F 37% 30.14 in 10.0 mi NE 3.5 mph - N/A   Clear
10:35 PM 32.9 °F - 12.0 °F 42% 30.15 in 10.0 mi Calm Calm - N/A   Clear
10:55 PM 32.5 °F - 11.5 °F 42% 30.15 in 10.0 mi Calm Calm - N/A   Clear
11:15 PM 32.9 °F 29.8 °F 12.2 °F 42% 30.15 in 10.0 mi West 3.5 mph - N/A   Clear
11:35 PM 33.3 °F 28.9 °F 11.8 °F 41% 30.14 in 10.0 mi West 4.6 mph - N/A   Clear
11:55 PM 31.1 °F - 12.0 °F 45% 30.14 in 10.0 mi Calm Calm - N/A   Clear